#datint,netname,site,siteID,timestamp,IntT,BattV,AirT2,AirT,AirT_Avg,AirT_Max,AirT_Min,RH_Avg,RH_Max,RH_Min,EA_Avg,Td_Avg,Td_Max,Td_Min,WindS_Smp,WindS_Avg,WindD_Avg,WindD_SD,WindS_Max,ETo,ETr,SoilT4,SoilT8,SoilVWC8,SolarW_Avg,wetstate_Avg,wetT_Avg,Precip_accum,Precip_WPG,Precip_TB
15min,AgWx,beryljct,423,09OCT2020:00:00:00,54.5,12.89,52.9,53.5,51.3,53.8,48.7,52,58,45,0.637,34.0,35.0,32.8,5.809,5.9,169,11,7.5,0.00021,0.00030,58.7,59.7,10,0,.,.,4.27,0.00,0.00
15min,AgWx,beryljct,423,09OCT2020:00:15:00,54.1,12.89,56.7,56.1,54.2,56.3,51.8,46,51,43,0.665,34.0,34.3,33.0,4.384,4.5,183,6.0,5.9,0.00018,0.00027,58.5,59.6,10,0,.,.,4.26,0.00,0.00
15min,AgWx,beryljct,423,09OCT2020:00:30:00,54.1,12.87,57.7,57.0,55.9,57.0,55.2,43,44,42,0.682,33.7,34.8,32.8,2.85,3.7,191,5.3,4.5,0.00013,0.00022,58.3,59.6,10,0,.,.,4.26,0.00,0.00
15min,AgWx,beryljct,423,09OCT2020:00:45:00,53.9,12.87,49.2,47.6,51.9,57.2,46.9,51,60,42,0.641,34.0,34.9,33.2,0.636,3.0,169,44,4.8,0.00003,0.00008,58.1,59.6,10,0,.,.,4.26,0.00,0.00
15min,AgWx,beryljct,423,09OCT2020:01:00:00,52.7,12.86,46.6,46.4,47.4,48.1,46.4,56,60,51,0.608,32.3,34.7,30.4,1.666,1.9,313,38,3.6,-0.00009,-0.00010,57.9,59.6,10,0,.,.,4.26,0.00,0.00
15min,AgWx,beryljct,423,09OCT2020:01:15:00,51.4,12.86,46.5,46.2,46.3,46.8,45.6,57,61,53,0.621,31.8,32.9,30.5,0.789,1.8,315,5.6,2.9,-0.00010,-0.00012,57.7,59.5,10,0,.,.,4.26,0.00,0.00
15min,AgWx,beryljct,423,09OCT2020:01:30:00,50.4,12.83,45.9,46.9,46.4,48.3,45.7,59,61,53,0.622,32.8,33.4,31.8,3.639,1.6,259,35,3.9,-0.00014,-0.00017,57.5,59.5,10,0,.,.,4.27,0.00,0.00
15min,AgWx,beryljct,423,09OCT2020:01:45:00,49.7,12.84,51.9,50.0,47.9,50.0,45.9,57,65,52,0.659,33.4,34.7,32.2,3.047,2.4,263,24,3.7,-0.00006,-0.00005,57.3,59.4,10,0,.,.,4.26,0.00,0.00
15min,AgWx,beryljct,423,09OCT2020:02:00:00,49.3,12.82,47.9,48.3,48.8,50.6,47.6,56,60,51,0.670,34.0,34.5,33.1,3.266,2.5,316,9.0,4.1,-0.00005,-0.00004,57.1,59.4,10,0,.,.,4.27,0.00,0.00
15min,AgWx,beryljct,423,09OCT2020:02:15:00,49.0,12.82,49.1,48.6,48.3,49.0,47.6,55,59,51,0.621,33.0,34.3,31.6,3.223,3.2,316,3.8,3.9,0.00001,0.00005,56.9,59.3,10,0,.,.,4.27,0.00,0.00
15min,AgWx,beryljct,423,09OCT2020:02:30:00,48.7,12.82,48.1,48.2,47.8,48.9,46.4,57,62,53,0.660,33.2,34.3,32.2,2.302,3.1,301,5.1,3.9,-0.00000,0.00003,56.7,59.3,10,0,.,.,4.26,0.00,0.00
15min,AgWx,beryljct,423,09OCT2020:02:45:00,48.3,12.8,47.9,47.1,47.2,48.2,46.3,62,64,58,0.667,34.7,35.0,34.0,0.11,1.7,302,2.8,3.2,-0.00013,-0.00015,56.5,59.2,10,0,.,.,4.27,0.00,0.00
15min,AgWx,beryljct,423,09OCT2020:03:00:00,47.8,12.79,43.3,42.6,45.3,47.3,42.6,64,72,59,0.671,33.7,34.4,33.2,2.609,2.3,64,39,3.7,-0.00009,-0.00010,56.3,59.2,10,0,.,.,4.27,0.00,0.00
15min,AgWx,beryljct,423,09OCT2020:03:15:00,46.9,12.79,45.3,44.6,43.0,44.6,41.7,66,72,59,0.592,32.5,34.6,30.2,2.521,2.6,194,34,3.6,-0.00007,-0.00007,56.0,59.1,10,0,.,.,4.27,0.00,0.00
15min,AgWx,beryljct,423,09OCT2020:03:30:00,46.0,12.77,43.6,43.2,43.5,44.9,41.4,61,68,58,0.573,31.1,31.7,30.3,2.762,2.8,192,9.2,3.4,-0.00004,-0.00003,55.9,59.1,10,0,.,.,4.27,0.00,0.00
15min,AgWx,beryljct,423,09OCT2020:03:45:00,45.3,12.77,43.1,42.9,43.2,44.2,42.3,63,66,60,0.623,31.4,32.5,30.4,4.077,3.3,199,5.7,4.1,-0.00002,-0.00000,55.7,59.0,10,0,.,.,4.27,0.00,0.00
15min,AgWx,beryljct,423,09OCT2020:04:00:00,44.7,12.76,39.0,39.3,41.5,43.5,39.3,68,71,65,0.577,31.7,32.9,29.7,4.428,2.7,143,60,4.4,-0.00007,-0.00007,55.5,59.0,10,0,.,.,4.27,0.00,0.00
15min,AgWx,beryljct,423,09OCT2020:04:15:00,43.9,12.75,37.1,39.3,39.6,40.5,39.0,70,74,66,0.588,30.7,31.7,29.8,1.841,3.2,130,55,5.1,-0.00005,-0.00004,55.3,58.9,10,0,.,.,4.27,0.00,0.00
15min,AgWx,beryljct,423,09OCT2020:04:30:00,43.1,12.73,41.2,41.2,40.4,41.4,38.4,76,80,73,0.654,33.4,34.6,30.9,2.455,2.5,261,21,3.3,-0.00010,-0.00012,55.1,58.8,10,0,.,.,4.27,0.00,0.00
15min,AgWx,beryljct,423,09OCT2020:04:45:00,42.7,12.74,43.2,41.9,41.2,42.0,40.3,71,78,64,0.580,32.4,34.7,30.2,4.253,3.5,306,19,4.9,-0.00004,-0.00003,54.9,58.8,10,0,.,.,4.27,0.00,0.00
15min,AgWx,beryljct,423,09OCT2020:05:00:00,42.7,12.72,43.5,43.6,43.5,44.0,42.0,64,65,61,0.619,32.2,32.8,30.9,3.639,4.4,303,2.9,5.3,0.00003,0.00006,54.7,58.7,10,0,.,.,4.27,0.00,0.00
15min,AgWx,beryljct,423,09OCT2020:05:15:00,42.7,12.7,41.0,41.3,42.1,43.5,41.3,65,67,63,0.570,31.1,32.4,30.2,0,2.4,307,1.0,3.4,-0.00008,-0.00008,54.5,58.6,10,0,.,.,4.27,0.00,0.00
15min,AgWx,beryljct,423,09OCT2020:05:30:00,42.3,12.71,37.4,37.4,39.8,42.1,37.0,67,72,62,0.512,29.7,30.7,27.3,2.916,2.2,173,54,3.8,-0.00009,-0.00011,54.3,58.5,10,0,.,.,4.27,0.00,0.00
15min,AgWx,beryljct,423,09OCT2020:05:45:00,41.3,12.7,39.6,39.2,37.4,39.4,36.5,68,72,65,0.529,27.9,29.4,27.1,2.039,2.5,195,7.9,3.2,-0.00008,-0.00008,54.2,58.5,10,0,.,.,4.27,0.00,0.00
15min,AgWx,beryljct,423,09OCT2020:06:00:00,40.7,12.69,36.9,37.8,39.5,40.1,37.8,65,67,61,0.512,28.8,29.6,26.5,3.529,3.4,177,8.6,4.5,-0.00002,-0.00001,53.9,58.4,10,0,.,.,4.27,0.00,0.00
15min,AgWx,beryljct,423,09OCT2020:06:15:00,40.2,12.68,40.1,39.7,38.3,40.3,36.2,68,74,62,0.523,28.5,29.2,27.7,2.192,2.0,187,4.8,3.0,-0.00011,-0.00013,53.8,58.3,10,0,.,.,4.27,0.00,0.00
15min,AgWx,beryljct,423,09OCT2020:06:30:00,39.9,12.66,40.2,42.6,41.0,44.0,38.2,65,70,60,0.585,30.2,31.2,27.7,2.565,2.2,215,18,3.0,-0.00009,-0.00010,53.6,58.3,10,0,.,.,4.27,0.00,0.00
15min,AgWx,beryljct,423,09OCT2020:06:45:00,39.9,12.67,40.1,38.5,38.4,42.2,37.3,72,75,64,0.560,30.3,31.6,29.4,1.228,1.7,298,13,3.1,-0.00013,-0.00017,53.4,58.2,10,0,.,.,4.27,0.00,0.00
15min,AgWx,beryljct,423,09OCT2020:07:00:00,39.6,12.65,36.9,38.8,39.6,41.7,38.7,68,72,67,0.557,30.1,32.8,29.1,3.31,1.2,93,46,3.7,0.00008,0.00014,53.2,58.1,10,0,.,.,4.27,0.00,0.00
15min,AgWx,beryljct,423,09OCT2020:07:15:00,39.2,12.66,35.0,35.1,35.7,39.0,33.9,74,78,67,0.535,28.2,30.8,26.9,1.25,3.9,134,8.4,4.9,0.00018,0.00031,53.0,58.0,10,0,.,.,4.27,0.00,0.00
15min,AgWx,beryljct,423,09OCT2020:07:30:00,38.2,12.65,33.5,33.7,34.0,35.0,33.3,76,79,69,0.465,27.1,28.7,25.2,3.573,2.4,177,12,3.9,0.00011,0.00019,52.9,58.0,10,1,.,.,4.27,0.00,0.00
15min,AgWx,beryljct,423,09OCT2020:07:45:00,37.5,12.65,34.3,34.2,33.7,34.9,32.6,72,77,67,0.513,25.8,27.7,25.1,1.469,2.2,203,7.5,3.6,0.00013,0.00022,52.7,57.9,10,5,.,.,4.27,0.00,0.00
15min,AgWx,beryljct,423,09OCT2020:08:00:00,37.1,12.67,41.9,40.3,36.7,40.3,34.2,77,80,71,0.605,30.1,31.8,27.7,1.776,2.1,211,19,2.8,0.00015,0.00022,52.5,57.8,10,12,.,.,4.27,0.00,0.00
15min,AgWx,beryljct,423,09OCT2020:08:15:00,37.4,12.78,36.1,36.1,36.9,40.8,36.0,78,84,69,0.601,30.6,31.7,28.4,0.526,0.3,300,23,1.9,0.00031,0.00034,52.3,57.7,10,64,.,.,4.27,0.00,0.00
15min,AgWx,beryljct,423,09OCT2020:08:30:00,38.2,12.94,39.3,38.9,37.2,38.9,35.9,81,86,75,0.626,32.0,32.6,31.1,0,0.2,315,0.0,1.0,0.00039,0.00043,52.1,57.6,10,85,.,.,4.27,0.00,0.00
15min,AgWx,beryljct,423,09OCT2020:08:45:00,39.8,13.32,44.3,43.8,41.6,43.8,38.9,72,79,66,0.749,33.3,37.1,30.6,0,0.1,315,0.0,0.7,0.00064,0.00068,52.0,57.5,10,144,.,.,4.27,0.00,0.00
15min,AgWx,beryljct,423,09OCT2020:09:00:00,42.5,13.64,44.4,44.0,43.8,44.2,43.3,77,81,70,0.683,36.9,38.1,34.6,1.644,1.4,59,20,2.7,0.00079,0.00090,51.8,57.4,10,164,.,.,4.27,0.00,0.00
15min,AgWx,beryljct,423,09OCT2020:09:15:00,45.4,14.57,48.7,47.8,45.6,47.8,44.0,68,75,63,0.715,35.7,37.0,34.6,0.022,1.2,59,2.1,1.9,0.00112,0.00126,51.7,57.3,9,234,.,.,4.27,0.00,0.00
15min,AgWx,beryljct,423,09OCT2020:09:30:00,49.1,14.49,51.3,51.0,49.4,51.0,47.9,57,64,52,0.679,34.7,36.2,33.4,0,1.1,39,17,2.3,0.00160,0.00179,51.6,57.2,9,322,.,.,4.26,0.00,0.00
15min,AgWx,beryljct,423,09OCT2020:09:45:00,53.0,14.39,52.7,52.8,51.9,52.8,51.0,52,55,49,0.687,34.8,36.1,34.0,2.28,0.9,61,14,2.3,0.00182,0.00201,51.6,57.2,9,353,.,.,4.26,0.00,0.00
15min,AgWx,beryljct,423,09OCT2020:10:00:00,56.7,14.33,54.5,54.7,54.0,54.8,52.8,48,52,46,0.696,34.7,36.4,33.7,1.666,0.9,46,11,2.0,0.00214,0.00237,51.6,57.1,10,402,.,.,4.26,0.00,0.00
15min,AgWx,beryljct,423,09OCT2020:10:15:00,59.7,14.33,57.3,57.7,55.7,57.7,54.7,47,51,44,0.762,35.6,37.6,33.6,1.6,0.6,52,11,1.8,0.00224,0.00246,51.6,57.0,9,410,.,.,4.25,0.00,0.00
15min,AgWx,beryljct,423,09OCT2020:10:30:00,62.5,14.24,59.2,59.2,58.0,59.2,57.0,43,46,40,0.709,35.5,37.3,33.8,0.833,1.5,39,10,3.1,0.00262,0.00296,51.7,56.9,9,452,.,.,4.25,0.00,0.00
15min,AgWx,beryljct,423,09OCT2020:10:45:00,65.3,14.21,61.8,61.3,60.4,61.7,59.2,40,43,38,0.694,36.1,37.8,33.8,1.052,1.0,31,34,2.4,0.00310,0.00344,51.9,56.8,9,537,.,.,4.25,0.00,0.00
15min,AgWx,beryljct,423,09OCT2020:11:00:00,68.3,14.14,63.8,63.2,62.9,64.0,61.3,37,41,34,0.781,36.5,39.5,34.9,1.381,1.4,35,35,3.8,0.00328,0.00367,52.1,56.8,9,540,.,.,4.24,0.00,0.00
15min,AgWx,beryljct,423,09OCT2020:11:15:00,69.9,14.14,65.0,65.2,64.4,65.2,63.3,38,43,33,0.736,38.2,41.6,35.1,2.17,2.2,64,17,4.1,0.00320,0.00369,52.4,56.7,9,495,.,.,4.23,0.00,0.00
15min,AgWx,beryljct,423,09OCT2020:11:30:00,71.3,13.7,65.5,65.8,65.8,66.3,65.0,39,48,33,0.807,39.8,46.2,35.4,2.324,2.2,111,19,4.7,0.00369,0.00423,52.8,56.6,10,578,.,.,4.23,0.00,0.00
15min,AgWx,beryljct,423,09OCT2020:11:45:00,72.3,13.65,68.6,67.7,66.7,67.8,65.8,40,45,36,0.903,41.3,44.5,38.6,1.491,2.1,109,17,3.9,0.00425,0.00480,53.1,56.6,9,676,.,.,4.23,0.00,0.00
15min,AgWx,beryljct,423,09OCT2020:12:00:00,74.1,13.74,70.4,70.2,69.2,70.2,67.9,35,41,30,0.896,40.2,43.7,37.2,1.513,1.7,79,41,6.4,0.00469,0.00524,53.6,56.5,9,735,.,.,4.22,0.00,0.00
15min,AgWx,beryljct,423,09OCT2020:12:15:00,76.0,13.62,71.5,70.6,70.2,70.6,69.8,34,40,30,0.948,40.4,45.1,37.3,5.634,3.9,111,26,7.1,0.00483,0.00568,54.1,56.5,9,719,.,.,4.22,0.00,0.00
15min,AgWx,beryljct,423,09OCT2020:12:30:00,77.0,13.57,72.7,72.9,71.9,72.9,70.7,35,40,30,0.888,42.7,47.2,38.5,4.998,7.1,117,20,11.8,0.00565,0.00695,54.7,56.4,9,794,.,.,4.22,0.00,0.00
15min,AgWx,beryljct,423,09OCT2020:12:45:00,77.7,13.57,75.7,75.2,74.5,75.7,72.9,29,38,22,0.791,39.7,46.1,33.9,12.39,10.6,180,33,18.4,0.00609,0.00794,55.3,56.4,10,771,.,.,4.22,0.00,0.00
15min,AgWx,beryljct,423,09OCT2020:13:00:00,77.6,13.55,74.5,74.6,74.2,75.3,73.1,26,30,23,0.736,36.8,41.2,34.4,11.27,11.6,171,16,16.7,0.00503,0.00699,56.0,56.4,10,517,.,.,4.23,0.01,0.00
15min,AgWx,beryljct,423,09OCT2020:13:15:00,77.2,13.57,74.4,75.1,74.6,75.4,73.5,25,27,23,0.713,36.3,38.0,34.3,10.59,12.0,182,15,17.6,0.00532,0.00737,56.7,56.4,10,567,.,.,4.22,0.00,0.00
15min,AgWx,beryljct,423,09OCT2020:13:30:00,77.0,13.6,75.2,74.6,74.3,75.1,73.4,25,29,22,0.788,35.7,39.7,32.6,6.905,9.6,216,15,18.8,0.00488,0.00664,57.3,56.4,9,538,.,.,4.22,0.00,0.00
15min,AgWx,beryljct,423,09OCT2020:13:45:00,77.1,13.57,75.7,75.9,75.2,76.0,74.7,25,29,22,0.673,37.1,40.5,32.9,4.187,8.1,213,18,12.1,0.00519,0.00677,57.9,56.4,10,638,.,.,4.22,0.00,0.00
15min,AgWx,beryljct,423,09OCT2020:14:00:00,78.2,13.62,75.2,76.3,76.5,77.4,75.8,24,26,22,0.682,37.3,40.0,34.5,11.57,10.4,207,24,19.5,0.00612,0.00809,58.3,56.5,10,738,.,.,4.22,0.00,0.00
15min,AgWx,beryljct,423,09OCT2020:14:15:00,79.2,13.53,76.5,77.1,77.3,77.8,76.1,24,26,22,0.720,37.6,39.9,34.3,12.19,12.5,199,13,20.5,0.00645,0.00873,58.8,56.6,9,746,.,.,4.22,0.00,0.00
15min,AgWx,beryljct,423,09OCT2020:14:30:00,79.7,13.52,76.5,76.7,76.4,76.9,75.7,24,28,23,0.830,37.3,40.8,35.2,11.09,12.7,195,15,18.9,0.00599,0.00822,59.3,56.6,10,677,.,.,4.23,0.01,0.00
15min,AgWx,beryljct,423,09OCT2020:14:45:00,80.1,13.52,78.5,76.6,76.7,77.1,76.1,25,28,22,0.782,38.5,41.9,35.0,12.63,10.4,195,24,20.1,0.00574,0.00768,59.8,56.7,9,679,.,.,4.22,0.00,0.00
15min,AgWx,beryljct,423,09OCT2020:15:00:00,80.6,13.46,77.1,76.9,76.9,77.6,76.2,25,27,23,0.762,38.1,40.9,36.7,15.41,12.7,181,13,18.0,0.00606,0.00830,60.3,56.8,10,685,.,.,4.23,0.00,0.00
15min,AgWx,beryljct,423,09OCT2020:15:15:00,80.9,13.48,75.9,76.5,76.9,77.3,76.5,25,27,24,0.751,38.3,40.0,36.6,13.07,11.7,202,12,17.4,0.00570,0.00780,60.8,56.9,9,643,.,.,4.23,0.00,0.00
15min,AgWx,beryljct,423,09OCT2020:15:30:00,80.9,13.48,76.7,76.7,76.6,77.3,76.1,25,27,22,0.803,38.0,40.2,35.7,14.84,8.7,207,19,14.8,0.00487,0.00655,61.3,57.0,10,575,.,.,4.23,0.00,0.00
15min,AgWx,beryljct,423,09OCT2020:15:45:00,81.0,13.51,76.3,76.6,76.7,77.3,76.3,25,27,22,0.754,38.0,40.2,35.4,7.826,9.8,215,14,14.8,0.00506,0.00690,61.7,57.1,10,575,.,.,4.23,0.00,0.00
15min,AgWx,beryljct,423,09OCT2020:16:00:00,80.9,13.48,75.8,76.2,76.3,77.0,75.3,26,29,23,0.766,38.7,41.8,36.1,8.15,10.9,177,19,15.3,0.00498,0.00691,62.1,57.3,9,556,.,.,4.23,0.00,0.00
15min,AgWx,beryljct,423,09OCT2020:16:15:00,81.0,13.47,76.6,76.6,76.8,77.3,76.1,25,28,23,0.787,38.7,40.8,36.7,9.73,10.2,198,24,17.0,0.00473,0.00658,62.5,57.4,10,521,.,.,4.23,0.00,0.00
15min,AgWx,beryljct,423,09OCT2020:16:30:00,80.9,13.44,77.3,76.4,76.4,77.0,75.7,26,30,24,0.781,38.8,42.8,37.1,5.985,10.1,194,34,18.4,0.00458,0.00640,62.9,57.5,9,504,.,.,4.23,0.00,0.00
15min,AgWx,beryljct,423,09OCT2020:16:45:00,81.0,13.44,76.2,76.3,76.5,77.1,75.9,25,27,23,0.782,38.4,40.3,36.8,8.09,9.6,197,14,14.5,0.00399,0.00571,63.2,57.7,9,420,.,.,4.23,0.00,0.00
15min,AgWx,beryljct,423,09OCT2020:17:00:00,80.8,13.46,75.2,75.5,76.0,76.7,75.5,26,30,22,0.745,39.0,42.0,35.1,16.49,9.8,182,26,17.7,0.00382,0.00552,63.5,57.8,9,397,.,.,4.23,0.01,0.00
15min,AgWx,beryljct,423,09OCT2020:17:15:00,80.0,13.47,75.1,75.0,75.4,75.7,75.0,24,25,22,0.712,36.0,37.7,33.9,12.01,14.3,225,11,20.8,0.00416,0.00644,63.7,58.0,9,342,.,.,4.23,0.00,0.00
15min,AgWx,beryljct,423,09OCT2020:17:30:00,79.1,13.5,75.1,75.0,75.1,75.3,74.9,23,25,23,0.689,35.2,36.8,34.2,14.82,14.4,222,11,19.2,0.00390,0.00617,63.9,58.1,10,295,.,.,4.23,0.00,0.00
15min,AgWx,beryljct,423,09OCT2020:17:45:00,78.3,13.53,74.5,74.3,74.5,75.1,74.1,24,26,22,0.705,35.2,36.9,33.6,13.22,12.9,228,11,16.9,0.00340,0.00547,64.0,58.3,10,250,.,.,4.23,0.00,0.00
15min,AgWx,beryljct,423,09OCT2020:18:00:00,76.9,13.52,72.1,72.6,73.3,74.4,72.4,24,25,22,0.662,34.1,35.3,32.9,10.94,12.1,227,8.7,16.6,0.00233,0.00421,64.0,58.4,10,96,.,.,4.23,0.00,0.00
15min,AgWx,beryljct,423,09OCT2020:18:15:00,75.5,13.57,73.2,72.9,72.8,73.0,72.6,25,26,24,0.687,34.9,36.1,33.5,10.5,9.8,225,9.2,15.0,0.00136,0.00175,64.0,58.6,9,155,.,.,4.23,0.00,0.00
15min,AgWx,beryljct,423,09OCT2020:18:30:00,74.9,13.55,71.4,72.5,72.9,73.4,72.5,25,26,23,0.695,34.9,36.2,33.3,6.927,9.0,215,8.6,12.2,0.00126,0.00164,63.9,58.7,9,128,.,.,4.23,0.00,0.00
15min,AgWx,beryljct,423,09OCT2020:18:45:00,73.9,13.24,70.0,70.6,71.6,72.4,70.6,27,28,25,0.704,35.5,36.2,34.0,6.029,6.9,217,7.2,9.3,0.00090,0.00123,63.9,58.9,10,72,.,.,4.24,0.01,0.00
15min,AgWx,beryljct,423,09OCT2020:19:00:00,72.1,13.1,69.4,69.4,69.1,70.6,68.0,29,31,28,0.695,35.7,36.7,34.7,8.62,6.8,229,6.4,10.7,0.00068,0.00095,63.7,59.0,10,14,.,.,4.24,0.00,0.00
15min,AgWx,beryljct,423,09OCT2020:19:15:00,70.4,13.05,69.2,68.5,69.1,69.7,68.2,29,31,28,0.700,35.6,36.2,35.1,7.717,7.9,230,4.8,10.8,0.00077,0.00104,63.6,59.2,9,4,.,.,4.24,0.00,0.00
15min,AgWx,beryljct,423,09OCT2020:19:30:00,68.8,13.03,66.6,67.0,67.5,68.6,66.9,30,32,29,0.688,35.4,36.2,34.5,6.007,6.5,239,2.9,7.9,0.00059,0.00083,63.4,59.3,9,0,.,.,4.24,0.01,0.00
15min,AgWx,beryljct,423,09OCT2020:19:45:00,67.2,13.01,66.6,66.0,66.4,67.0,65.8,32,33,31,0.700,35.5,36.1,34.9,7.695,6.4,241,3.5,7.7,0.00055,0.00078,63.2,59.4,9,0,.,.,4.24,0.00,0.00
15min,AgWx,beryljct,423,09OCT2020:20:00:00,65.8,13,63.2,63.1,64.9,66.2,63.1,34,37,32,0.726,35.8,36.8,35.0,4.538,5.8,243,3.8,7.2,0.00046,0.00066,62.9,59.5,10,0,.,.,4.24,0.00,0.00
15min,AgWx,beryljct,423,09OCT2020:20:15:00,64.1,13,63.1,62.2,60.8,63.7,57.6,40,47,35,0.696,36.4,37.8,35.3,3.266,4.0,236,11,5.4,0.00021,0.00033,62.7,59.6,10,0,.,.,4.25,0.00,0.00
15min,AgWx,beryljct,423,09OCT2020:20:30:00,62.7,12.98,63.7,62.4,62.2,63.2,61.3,35,37,33,0.643,34.5,35.4,33.2,3.113,2.8,211,3.1,3.2,0.00009,0.00017,62.4,59.7,10,0,.,.,4.25,0.00,0.00
15min,AgWx,beryljct,423,09OCT2020:20:45:00,62.0,12.97,62.3,62.9,63.2,63.9,62.5,34,38,32,0.704,34.6,36.6,33.1,4.845,4.4,223,7.6,5.9,0.00029,0.00045,62.2,59.8,10,0,.,.,4.25,0.00,0.00
15min,AgWx,beryljct,423,09OCT2020:21:00:00,61.3,12.96,61.4,61.7,61.8,62.7,60.5,38,41,36,0.706,35.8,36.7,35.0,5.612,5.0,228,1.8,5.8,0.00033,0.00048,61.9,59.9,10,0,.,.,4.25,0.00,0.00
15min,AgWx,beryljct,423,09OCT2020:21:15:00,60.6,12.96,64.8,64.0,62.6,64.0,61.6,35,38,32,0.655,34.8,35.6,33.6,5.524,5.4,228,2.9,6.1,0.00039,0.00056,61.7,59.9,10,0,.,.,4.25,0.00,0.00
15min,AgWx,beryljct,423,09OCT2020:21:30:00,60.0,12.96,57.7,58.2,59.8,64.7,57.5,40,46,31,0.657,35.3,37.2,33.5,2.433,3.8,219,20,5.9,0.00018,0.00030,61.4,60.0,10,0,.,.,4.25,0.00,0.00
15min,AgWx,beryljct,423,09OCT2020:21:45:00,58.9,12.95,59.2,59.1,59.2,60.5,56.8,37,41,35,0.623,32.7,34.0,31.4,4.077,3.3,177,6.0,4.3,0.00014,0.00024,61.1,60.0,10,0,.,.,4.26,0.00,0.00
15min,AgWx,beryljct,423,09OCT2020:22:00:00,57.9,12.94,57.5,58.9,59.1,59.6,58.6,37,39,35,0.652,32.6,33.8,31.8,2.85,3.8,186,4.4,4.4,0.00019,0.00031,60.9,60.0,10,0,.,.,4.25,0.00,0.00
15min,AgWx,beryljct,423,09OCT2020:22:15:00,57.1,12.93,51.2,51.9,57.4,61.6,51.1,39,48,33,0.628,32.4,33.8,31.1,4.954,4.5,163,9.5,5.8,0.00024,0.00037,60.6,60.1,10,0,.,.,4.26,0.01,0.00
15min,AgWx,beryljct,423,09OCT2020:22:30:00,55.8,12.93,54.0,53.4,53.1,54.0,51.3,42,48,39,0.562,30.4,32.9,29.0,4.779,5.0,177,8.3,5.7,0.00023,0.00034,60.3,60.1,10,0,.,.,4.26,0.00,0.00
15min,AgWx,beryljct,423,09OCT2020:22:45:00,54.9,12.92,50.1,49.9,52.9,54.1,49.3,42,51,39,0.612,30.5,32.3,29.4,5.48,5.2,171,13,6.4,0.00024,0.00035,60.1,60.1,10,0,.,.,4.26,0.00,0.00
15min,AgWx,beryljct,423,09OCT2020:23:00:00,53.8,12.91,51.8,51.4,50.3,51.5,48.5,48,53,43,0.572,31.5,32.9,29.7,5.919,5.4,169,13,6.4,0.00020,0.00029,59.8,60.1,10,0,.,.,4.26,0.00,0.00
15min,AgWx,beryljct,423,09OCT2020:23:15:00,52.9,12.91,51.8,51.5,50.7,51.7,49.5,46,49,44,0.591,30.8,31.4,30.3,5.371,5.7,192,3.9,6.6,0.00023,0.00033,59.5,60.1,10,0,.,.,4.26,0.00,0.00
15min,AgWx,beryljct,423,09OCT2020:23:30:00,52.4,12.89,53.0,52.6,51.6,52.6,50.4,46,50,42,0.569,31.3,32.7,30.1,3.793,4.5,193,4.2,5.8,0.00017,0.00025,59.3,60.1,10,0,.,.,4.26,0.00,0.00
15min,AgWx,beryljct,423,09OCT2020:23:45:00,52.0,12.88,50.4,51.0,50.8,52.9,48.4,47,53,42,0.588,31.3,32.1,30.2,0,0.9,235,29,3.9,-0.00021,-0.00030,59.0,60.1,9,0,.,.,4.26,0.00,0.00
15min,AgWx,beryljct,423,10OCT2020:00:00:00,51.3,12.89,52.6,50.9,50.4,51.5,49.1,46,46,44,0.561,30.2,31.2,28.8,0.658,0.8,137,47,2.5,-0.00023,-0.00032,58.7,60.0,10,0,.,.,4.26,0.00,0.00
15min,AgWx,beryljct,423,10OCT2020:00:15:00,50.6,12.88,44.3,43.7,47.4,51.3,43.6,50,61,43,0.580,29.5,31.2,27.6,0,1.4,132,6.3,2.8,-0.00013,-0.00016,58.5,60.0,10,0,.,.,4.26,0.00,0.00
15min,AgWx,beryljct,423,10OCT2020:00:30:00,49.5,12.88,45.6,44.2,44.7,45.4,43.8,61,70,55,0.654,32.1,34.7,29.4,2.28,1.2,349,27,3.1,-0.00018,-0.00024,58.3,60.0,10,0,.,.,4.26,0.00,0.00
15min,AgWx,beryljct,423,10OCT2020:00:45:00,48.5,12.87,45.2,44.2,45.4,46.2,43.8,58,65,53,0.593,31.6,33.3,29.7,0,1.1,320,0.4,2.4,-0.00017,-0.00023,58.1,60.0,10,0,.,.,4.27,0.00,0.00
15min,AgWx,bigpiney,439,09OCT2020:00:00:00,42.1,12.62,41.2,40.7,40.2,41.1,38.9,43,45,41,0.353,19.5,19.7,18.9,5.502,5.7,226,9.2,6.8,0.00018,0.00025,45.3,45.7,44,0,0,0.0,0.05,0.00,0.00
15min,AgWx,bigpiney,439,09OCT2020:00:15:00,42.2,12.62,40.6,41.0,40.7,42.2,39.4,40,43,37,0.335,18.5,18.9,17.6,3.858,3.8,270,27,6.4,0.00010,0.00016,45.3,45.7,44,0,0,0.0,0.05,0.00,0.00
15min,AgWx,bigpiney,439,09OCT2020:00:30:00,42.4,12.61,42.0,42.2,42.6,44.0,40.8,34,38,31,0.296,16.1,17.6,14.2,1.929,3.6,302,18,5.2,0.00011,0.00018,45.3,45.8,44,0,0,0.0,0.05,0.00,0.00
15min,AgWx,bigpiney,439,09OCT2020:00:45:00,42.5,12.6,44.3,43.6,43.1,43.6,42.2,31,32,30,0.301,14.6,15.3,14.1,3.99,4.0,302,13,5.4,0.00015,0.00024,45.2,45.7,44,0,0,0.0,0.05,0.00,0.00
15min,AgWx,bigpiney,439,09OCT2020:01:00:00,42.7,12.59,47.3,46.2,44.6,46.2,43.7,29,31,27,0.297,14.7,15.1,14.3,3.266,3.6,271,9.3,4.4,0.00014,0.00022,45.2,45.8,44,0,0,0.0,0.05,0.00,0.00
15min,AgWx,bigpiney,439,09OCT2020:01:15:00,42.7,12.59,37.5,38.0,43.2,47.2,38.0,34,45,27,0.347,16.3,18.4,14.6,3.266,3.8,217,22,6.1,0.00013,0.00021,45.1,45.8,44,0,0,0.0,0.05,0.00,0.00
15min,AgWx,bigpiney,439,09OCT2020:01:30:00,42.2,12.58,38.7,39.1,38.5,40.3,35.9,41,49,36,0.301,16.7,18.8,14.8,1.315,2.1,61,52,4.1,-0.00004,-0.00003,45.1,45.7,44,0,0,0.0,0.05,0.00,0.00
15min,AgWx,bigpiney,439,09OCT2020:01:45:00,41.7,12.57,39.8,39.7,39.1,39.7,38.0,38,40,37,0.310,15.7,15.9,15.1,0,0.1,18,3.6,1.5,-0.00030,-0.00047,45.1,45.8,44,0,0,0.0,0.05,0.00,0.00
15min,AgWx,bigpiney,439,09OCT2020:02:00:00,41.1,12.57,38.5,38.0,37.9,39.7,35.9,41,46,37,0.314,16.3,17.2,15.5,4.099,2.4,221,9.8,5.5,-0.00002,0.00000,45.0,45.8,44,0,0,0.0,0.05,0.00,0.00
15min,AgWx,bigpiney,439,09OCT2020:02:15:00,40.4,12.56,35.1,36.1,39.5,40.9,36.1,37,45,34,0.326,15.6,16.9,15.0,4.998,3.5,210,6.3,5.3,0.00008,0.00014,45.0,45.8,44,0,0,0.0,0.05,0.00,0.00
15min,AgWx,bigpiney,439,09OCT2020:02:30:00,39.7,12.55,36.8,36.4,35.7,36.4,35.4,48,49,46,0.354,17.7,19.0,17.0,3.157,4.6,208,3.7,6.0,0.00009,0.00014,45.0,45.8,44,0,0,0.0,0.05,0.00,0.00
15min,AgWx,bigpiney,439,09OCT2020:02:45:00,39.2,12.54,35.0,34.8,36.8,39.0,34.8,48,55,43,0.375,19.0,20.2,18.2,2.981,2.3,208,14,3.4,-0.00004,-0.00003,44.9,45.8,44,0,0,0.0,0.05,0.00,0.00
15min,AgWx,bigpiney,439,09OCT2020:03:00:00,38.6,12.53,37.0,37.0,34.9,37.0,32.5,55,61,48,0.360,20.2,21.1,19.3,1.206,0.7,209,9.1,2.9,-0.00019,-0.00027,44.9,45.8,44,0,0,0.0,0.05,0.00,0.00
15min,AgWx,bigpiney,439,09OCT2020:03:15:00,38.2,12.53,38.1,37.7,37.2,38.3,35.5,46,48,43,0.329,18.2,19.2,17.1,0.943,1.3,238,18,3.9,-0.00013,-0.00017,44.9,45.8,44,0,0,0.0,0.05,0.00,0.00
15min,AgWx,bigpiney,439,09OCT2020:03:30:00,37.8,12.52,31.5,35.4,38.1,39.4,35.4,41,46,38,0.321,16.4,17.1,16.0,2.806,1.0,246,11,2.8,-0.00016,-0.00022,44.8,45.8,44,0,0,0.0,0.05,0.00,0.00
15min,AgWx,bigpiney,439,09OCT2020:03:45:00,37.4,12.5,38.0,36.4,35.0,36.9,33.8,48,51,43,0.323,17.3,17.9,16.7,0,0.2,277,20,3.0,-0.00026,-0.00039,44.8,45.8,44,0,0,0.0,0.05,0.00,0.00
15min,AgWx,bigpiney,439,09OCT2020:04:00:00,37.1,12.49,37.8,37.3,36.6,37.4,35.8,44,45,42,0.316,16.6,16.9,16.3,1.885,0.6,242,41,1.9,-0.00022,-0.00031,44.8,45.8,44,0,0,0.0,0.05,0.00,0.00
15min,AgWx,bigpiney,439,09OCT2020:04:15:00,37.0,12.48,33.9,34.9,36.8,38.0,34.9,45,51,42,0.352,17.2,18.7,16.3,3.508,3.9,214,5.6,5.1,0.00007,0.00012,44.7,45.8,44,0,0,0.0,0.05,0.00,0.00
15min,AgWx,bigpiney,439,09OCT2020:04:30:00,36.8,12.48,32.5,33.3,34.9,36.9,33.3,50,56,44,0.349,18.2,19.6,16.8,2.806,3.7,241,8.2,4.7,0.00004,0.00007,44.7,45.7,44,0,0,0.0,0.05,0.00,0.00
15min,AgWx,bigpiney,439,09OCT2020:04:45:00,36.5,12.46,34.2,33.7,33.1,33.9,32.5,54,56,51,0.336,18.3,18.8,17.7,4.012,4.3,220,13,5.1,0.00005,0.00008,44.6,45.7,44,0,0,0.0,0.05,0.00,0.00
15min,AgWx,bigpiney,439,09OCT2020:05:00:00,36.3,12.46,35.3,34.3,33.7,34.3,32.2,51,55,49,0.339,17.5,18.0,17.0,1.776,3.3,260,28,4.6,0.00002,0.00005,44.6,45.7,44,0,0,0.0,0.05,0.00,0.00
15min,AgWx,bigpiney,439,09OCT2020:05:15:00,36.0,12.45,32.2,32.6,33.4,35.3,31.3,51,56,45,0.321,17.1,17.9,15.8,3.244,3.2,238,18,4.1,0.00001,0.00004,44.6,45.7,44,0,0,0.0,0.05,0.00,0.00
15min,AgWx,bigpiney,439,09OCT2020:05:30:00,35.6,12.44,37.7,37.0,33.9,37.0,31.0,49,56,42,0.313,16.6,17.6,15.9,1.184,2.8,258,26,5.2,-0.00000,0.00002,44.5,45.7,44,0,0,0.0,0.05,0.00,0.00
15min,AgWx,bigpiney,439,09OCT2020:05:45:00,35.4,12.42,30.3,30.5,34.5,37.4,30.5,47,54,41,0.309,16.0,16.5,15.7,3.551,3.0,327,91,6.6,0.00001,0.00004,44.5,45.7,44,0,0,0.0,0.05,0.00,0.00
15min,AgWx,bigpiney,439,09OCT2020:06:00:00,35.2,12.41,29.8,30.8,30.4,31.4,29.4,55,57,53,0.312,16.1,16.4,15.7,3.551,0.8,142,39,3.6,-0.00017,-0.00023,44.4,45.8,44,0,0,0.0,0.05,0.00,0.00
15min,AgWx,bigpiney,439,09OCT2020:06:15:00,34.6,12.4,28.5,28.0,30.0,32.0,27.9,56,63,52,0.327,16.3,17.1,15.7,4.604,3.7,209,12,5.8,0.00002,0.00004,44.4,45.6,44,0,0,0.0,0.05,0.00,0.00
15min,AgWx,bigpiney,439,09OCT2020:06:30:00,34.0,12.39,32.6,32.4,30.7,32.4,28.0,57,63,52,0.325,17.1,17.4,16.8,4.209,5.1,228,9.7,6.2,0.00006,0.00010,44.4,45.7,44,0,0,0.0,0.05,0.00,0.00
15min,AgWx,bigpiney,439,09OCT2020:06:45:00,33.7,12.37,35.6,34.9,32.4,34.9,31.0,53,56,47,0.323,17.2,17.5,16.7,3.99,4.2,247,6.6,5.3,0.00005,0.00008,44.3,45.7,44,0,0,0.0,0.05,0.00,0.00
15min,AgWx,bigpiney,439,09OCT2020:07:00:00,33.7,12.35,36.8,34.6,35.1,36.5,33.8,45,47,42,0.308,15.9,16.7,15.4,1.315,3.3,241,9.1,4.7,0.00004,0.00007,44.3,45.7,44,0,0,0.0,0.05,0.00,0.00